Location: Beaver Brook Trail
(44.0290°N, 71.8137°W)
Time: 09:07:20
(UTC+00:00)

BlueWalker 3 - Visible Passes

Search period start: 05 October 2024 00:00
Search period end: 15 October 2024 00:00
Orbit: 473 x 485 km, 53.2° (Epoch: 04 October)

Date Brightness Start Highest point End Pass type
(mag) Time Alt. Az. Time Alt. Az. Time Alt. Az.
05 Oct 4.8 08:09:02 11° ESE 08:09:02 11° ESE 08:09:58 10° ESE visible
05 Oct 1.8 09:43:16 16° SW 09:46:05 82° SE 09:49:47 10° ENE visible
06 Oct 1.9 09:16:40 38° SW 09:17:55 73° SE 09:21:37 10° ENE visible
07 Oct 2.1 08:49:56 63° ESE 08:49:56 63° ESE 08:53:24 10° ENE visible
08 Oct 3.7 08:23:04 30° ENE 08:23:04 30° ENE 08:25:08 10° ENE visible
08 Oct 2.9 09:57:16 16° WNW 09:59:40 31° NNW 10:03:00 10° NE visible
09 Oct 4.9 07:56:05 15° ENE 07:56:05 15° ENE 07:56:49 10° ENE visible
09 Oct 2.8 09:30:17 27° WNW 09:31:20 33° NNW 09:34:43 10° NE visible
10 Oct 2.8 09:03:12 35° NNW 09:03:12 35° NNW 09:06:24 10° NE visible
11 Oct 3.7 08:36:03 26° NNE 08:36:03 26° NNE 08:38:03 10° NE visible
11 Oct 3.7 10:10:31 10° NW 10:13:17 20° N 10:16:04 10° NE visible
12 Oct 4.7 08:08:49 16° NE 08:08:49 16° NE 08:09:39 10° NE visible
12 Oct 3.7 09:43:00 15° NW 09:44:49 20° N 09:47:37 10° NE visible
13 Oct 3.6 09:15:43 20° NNW 09:16:17 20° N 09:19:07 10° NE visible
14 Oct 3.9 08:48:22 20° N 08:48:22 20° N 08:50:35 10° NE visible
14 Oct 3.7 10:23:37 10° NW 10:26:38 23° NNE 10:29:38 10° ENE visible
